METEOR-M2 4

Last updated on Mon Sep 07 2026 00:02:41 GMT+0000 (Coordinated Universal Time)

1 59051U 24039A 26249.63922104 .00000003 00000+0 21211-4 0 9991 2 59051 98.7098 207.9442 0006087 300.0902 59.9672 14.22436749130842
UTC large
Height (km)
Speed (km/s)
/
Latitude / Longitude
Inclination (degrees)
Orbital Period (minutes)
Azimuth
Elevation
Range (km)
Doppler Factor

Next 0 passes for location: London (51.5072 / 0.1276)

No passes found over London.
METEOR-M2 4